Location: Vigo di Fassa
(46.4167°N, 11.6667°E)
Time: 14:19:12
(UTC+00:00)

USA 307 - Pass Details

Date: 03 March 2021
Orbit: 567 x 577 km, 54.0° (Epoch: 16 April)

Event Time Altitude Azimuth Distance (km) Brightness Sun altitude
Rises 18:16:53 0° 282° (WNW) 2,785 8.3 -13.6°
Reaches altitude 10° 18:19:22 10° 294° (WNW) 1,885 6.8 -14.1°
Maximum altitude 18:23:09 29° 356° (N) 1,056 4.3 -14.7°
Enters shadow 18:25:53 16° 49° (NE) 1,544 4.7 -15.2°
